OE6ACM-10 Weather Reports


time (UTC)temp
C
wind
direction
speed
KPH
gust
KPH
rain 1hr
cm
rain 24hr
cm
rain mn
cm
humidity
%
barometer
mb
20260502232310 18 0.0 0.0 0.00 0.00 0.00 100 930.2
20260502231810 18 0.0 0.0 0.00 0.00 0.00 100 930.2
20260502231310 18 0.0 0.0 0.00 0.00 0.00 100 930.2
20260502230810 19 0.0 0.0 0.00 0.00 0.00 100 930.2
20260502230310 18 0.0 0.0 0.00 0.00 0.00 100 930.3
20260502225810 19 0.0 0.0 0.00 0.00 0.00 100 930.3
20260502225310 19 0.0 0.0 0.00 0.00 0.00 100 930.3
20260502224810 19 0.0 0.0 0.00 0.00 0.00 100 930.3
20260502224310 19 0.0 0.0 0.00 0.00 0.00 100 930.3
20260502223810 20 0.0 0.0 0.00 0.00 0.00 100 930.4
20260502223310 20 0.0 0.0 0.00 0.00 0.00 100 930.4
20260502222810 19 0.0 0.0 0.00 0.00 0.00 100 930.4
20260502222310 20 0.0 0.0 0.00 0.00 0.00 100 930.4
20260502221810 20 0.0 0.0 0.00 0.00 0.00 100 930.4
20260502221310 20 0.0 0.0 0.00 0.00 0.00 100 930.4
20260502220810 20 0.0 0.0 0.00 0.00 0.00 100 930.4
20260502220310 20 0.0 0.0 0.00 0.00 0.00 100 930.4
20260502215810 20 0.0 0.0 0.00 0.00 0.00 100 930.3
20260502215310 20 0.0 0.0 0.00 0.00 0.00 100 930.4
20260502214810 21 0.0 0.0 0.00 0.00 0.00 100 930.4
20260502214310 20 0.0 0.0 0.00 0.00 0.00 100 930.3
20260502213810 21 0.0 0.0 0.00 0.00 0.00 100 930.3
20260502213310 21 0.0 0.0 0.00 0.00 0.00 100 930.3
20260502212810 21 0.0 0.0 0.00 0.00 0.00 100 930.3
20260502212310 21 0.0 0.0 0.00 0.00 0.00 100 930.3
20260502211810 21 0.0 0.0 0.00 0.00 0.00 100 930.3
20260502211310 21 0.0 0.0 0.00 0.00 0.00 100 930.3
20260502210810 22 0.0 0.0 0.00 0.00 0.00 100 930.3
20260502210310 22 0.0 0.0 0.00 0.00 0.00 100 930.3
20260502205810 22 0.0 0.0 0.00 0.00 0.00 100 930.3
20260502205310 22 0.0 0.0 0.00 0.00 0.00 99 930.3
20260502204810 22 0.0 0.0 0.00 0.00 0.00 100 930.4
20260502204310 22 0.0 0.0 0.00 0.00 0.00 100 930.4
20260502203810 22 0.0 0.0 0.00 0.00 0.00 95 930.4
20260502203310 22 0.0 0.0 0.00 0.00 0.00 100 930.4
20260502202810 22 0.0 0.0 0.00 0.00 0.00 96 930.3
20260502202310 23 0.0 0.0 0.00 0.00 0.00 97 930.4
20260502201810 23 0.0 0.0 0.00 0.00 0.00 95 930.4
20260502201310 23 0.0 0.0 0.00 0.00 0.00 94 930.4
20260502200810 23 0.0 0.0 0.00 0.00 0.00 99 930.4
20260502200310 23 0.0 0.0 0.00 0.00 0.00 92 930.4
20260502195810 23 0.0 0.0 0.00 0.00 0.00 92 930.3
20260502195310 23 0.0 0.0 0.00 0.00 0.00 94 930.3
20260502194810 23 0.0 0.0 0.00 0.00 0.00 99 930.3
20260502194310 24 0.0 0.0 0.00 0.00 0.00 95 930.2
20260502193810 24 0.0 0.0 0.00 0.00 0.00 87 930.1
20260502193310 25 0.0 0.0 0.00 0.00 0.00 90 930.1
20260502192810 25 0.0 0.0 0.00 0.00 0.00 92 930.1
20260502192310 25 0.0 0.0 0.00 0.00 0.00 84 930.0
20260502191810 25 0.0 0.0 0.00 0.00 0.00 79 930.0
20260502191310 25 0.0 0.0 0.00 0.00 0.00 76 930.0
20260502190810 26 0.0 0.0 0.00 0.00 0.00 82 930.0
20260502190310 26 0.0 0.0 0.00 0.00 0.00 77 929.9
20260502185810 26 0.0 0.0 0.00 0.00 0.00 79 929.9
20260502185310 26 0.0 0.0 0.00 0.00 0.00 78 929.7
20260502184810 27 0.0 0.0 0.00 0.00 0.00 74 929.7
20260502184310 27 0.0 0.0 0.00 0.00 0.00 75 929.6
20260502183810 27 0.0 0.0 0.00 0.00 0.00 77 929.5
20260502183310 27 0.0 0.0 0.00 0.00 0.00 72 929.4
20260502182810 27 0.0 0.0 0.00 0.00 0.00 72 929.4
20260502182310 28 0.0 0.0 0.00 0.00 0.00 69 929.3
20260502181810 28 0.0 0.0 0.00 0.00 0.00 69 929.2
20260502181310 28 0.0 0.0 0.00 0.00 0.00 63 929.1
20260502180810 29 0.0 0.0 0.00 0.00 0.00 62 929.0
20260502180310 29 0.0 0.0 0.00 0.00 0.00 60 929.0
20260502170310 36 0.0 0.0 0.00 0.00 0.00 34 928.3
20260502164310 38 0.0 0.0 0.00 0.00 0.00 29 928.3
20260502163810 38 0.0 0.0 0.00 0.00 0.00 28 928.3
20260502163310 39 0.0 0.0 0.00 0.00 0.00 27 928.3
20260502162810 40 0.0 0.0 0.00 0.00 0.00 26 928.3
20260502162310 41 0.0 0.0 0.00 0.00 0.00 24 928.4
20260502161810 41 0.0 0.0 0.00 0.00 0.00 26 928.4
20260502161310 41 0.0 0.0 0.00 0.00 0.00 25 928.4
20260502160810 42 0.0 0.0 0.00 0.00 0.00 24 928.4
20260502160310 42 0.0 0.0 0.00 0.00 0.00 25 928.5
20260502152310 46 0.0 0.0 0.00 0.00 0.00 21 928.8
20260502151810 46 0.0 0.0 0.00 0.00 0.00 20 928.9
20260502151310 46 0.0 0.0 0.00 0.00 0.00 21 928.9
20260502150810 46 0.0 0.0 0.00 0.00 0.00 21 929.0
20260502150310 47 0.0 0.0 0.00 0.00 0.00 20 929.0
20260502130310 45 0.0 0.0 0.00 0.00 0.00 24 930.5
20260502123810 42 0.0 0.0 0.00 0.00 0.00 26 930.8
20260502123310 43 0.0 0.0 0.00 0.00 0.00 26 930.9
20260502122810 42 0.0 0.0 0.00 0.00 0.00 28 930.9
20260502122310 41 0.0 0.0 0.00 0.00 0.00 27 931.0
20260502121810 41 0.0 0.0 0.00 0.00 0.00 31 931.1
20260502121310 40 0.0 0.0 0.00 0.00 0.00 31 931.1
20260502120810 39 0.0 0.0 0.00 0.00 0.00 35 931.2
20260502120310 37 0.0 0.0 0.00 0.00 0.00 36 931.3
20260502115810 36 0.0 0.0 0.00 0.00 0.00 35 931.4
20260502115310 35 0.0 0.0 0.00 0.00 0.00 40 931.4
20260502114810 33 0.0 0.0 0.00 0.00 0.00 43 931.5
20260502114310 32 0.0 0.0 0.00 0.00 0.00 38 931.6
20260502113810 31 0.0 0.0 0.00 0.00 0.00 37 931.7
20260502113310 31 0.0 0.0 0.00 0.00 0.00 41 931.7
20260502112810 31 0.0 0.0 0.00 0.00 0.00 44 931.9
20260502112310 31 0.0 0.0 0.00 0.00 0.00 41 931.9
20260502111810 31 0.0 0.0 0.00 0.00 0.00 39 932.0
20260502111310 31 0.0 0.0 0.00 0.00 0.00 42 932.0
20260502110810 30 0.0 0.0 0.00 0.00 0.00 39 932.1
20260502110310 30 0.0 0.0 0.00 0.00 0.00 41 932.1
20260502105810 30 0.0 0.0 0.00 0.00 0.00 42 932.2
20260502105310 30 0.0 0.0 0.00 0.00 0.00 43 932.2
20260502104810 30 0.0 0.0 0.00 0.00 0.00 45 932.3
20260502104310 30 0.0 0.0 0.00 0.00 0.00 48 932.4
20260502103810 30 0.0 0.0 0.00 0.00 0.00 53 932.5
20260502103310 30 0.0 0.0 0.00 0.00 0.00 47 932.6
20260502102810 30 0.0 0.0 0.00 0.00 0.00 55 932.7
20260502102310 30 0.0 0.0 0.00 0.00 0.00 55 932.8
20260502101810 29 0.0 0.0 0.00 0.00 0.00 57 932.8
20260502101310 29 0.0 0.0 0.00 0.00 0.00 56 932.9
20260502100810 29 0.0 0.0 0.00 0.00 0.00 58 932.9
20260502100310 28 0.0 0.0 0.00 0.00 0.00 64 933.0
20260502091310 27 0.0 0.0 0.00 0.00 0.00 82 933.5
20260502090810 27 0.0 0.0 0.00 0.00 0.00 81 933.6
20260502090310 27 0.0 0.0 0.00 0.00 0.00 88 933.7
20260502071310 20 0.0 0.0 0.00 0.00 0.00 100 934.7
20260502070810 19 0.0 0.0 0.00 0.00 0.00 100 934.8
20260502070310 19 0.0 0.0 0.00 0.00 0.00 100 934.8
20260502065810 18 0.0 0.0 0.00 0.00 0.00 100 934.8
20260502065310 18 0.0 0.0 0.00 0.00 0.00 100 934.9
20260502064810 18 0.0 0.0 0.00 0.00 0.00 100 935.0
20260502064310 17 0.0 0.0 0.00 0.00 0.00 100 935.0
20260502063810 17 0.0 0.0 0.00 0.00 0.00 100 935.1
20260502063310 17 0.0 0.0 0.00 0.00 0.00 100 935.1
20260502062810 16 0.0 0.0 0.00 0.00 0.00 100 935.2
20260502062310 16 0.0 0.0 0.00 0.00 0.00 100 935.2
20260502061810 16 0.0 0.0 0.00 0.00 0.00 100 935.2
20260502061310 16 0.0 0.0 0.00 0.00 0.00 100 935.3
20260502060810 15 0.0 0.0 0.00 0.00 0.00 100 935.3
20260502060310 15 0.0 0.0 0.00 0.00 0.00 100 935.3
20260502055810 15 0.0 0.0 0.00 0.00 0.00 100 935.3
20260502055310 15 0.0 0.0 0.00 0.00 0.00 100 935.2
20260502054810 14 0.0 0.0 0.00 0.00 0.00 100 935.3
20260502054310 14 0.0 0.0 0.00 0.00 0.00 100 935.3
20260502053810 14 0.0 0.0 0.00 0.00 0.00 100 935.4
20260502053310 14 0.0 0.0 0.00 0.00 0.00 100 935.4
20260502052810 13 0.0 0.0 0.00 0.00 0.00 100 935.4
20260502052310 13 0.0 0.0 0.00 0.00 0.00 100 935.4
20260502051810 13 0.0 0.0 0.00 0.00 0.00 100 935.4
20260502051310 13 0.0 0.0 0.00 0.00 0.00 100 935.4
20260502050810 13 0.0 0.0 0.00 0.00 0.00 100 935.4
20260502050310 13 0.0 0.0 0.00 0.00 0.00 100 935.4
20260502045810 13 0.0 0.0 0.00 0.00 0.00 100 935.4
20260502045310 13 0.0 0.0 0.00 0.00 0.00 100 935.4
20260502044810 13 0.0 0.0 0.00 0.00 0.00 100 935.3
20260502044310 13 0.0 0.0 0.00 0.00 0.00 100 935.4
20260502043810 13 0.0 0.0 0.00 0.00 0.00 100 935.4
20260502043310 13 0.0 0.0 0.00 0.00 0.00 100 935.3
20260502042810 13 0.0 0.0 0.00 0.00 0.00 100 935.3
20260502042310 13 0.0 0.0 0.00 0.00 0.00 100 935.3
20260502041810 13 0.0 0.0 0.00 0.00 0.00 100 935.3
20260502041310 13 0.0 0.0 0.00 0.00 0.00 100 935.3
20260502040810 13 0.0 0.0 0.00 0.00 0.00 100 935.3
20260502040310 13 0.0 0.0 0.00 0.00 0.00 100 935.3
20260502035810 13 0.0 0.0 0.00 0.00 0.00 100 935.3
20260502035310 13 0.0 0.0 0.00 0.00 0.00 100 935.2
20260502034810 13 0.0 0.0 0.00 0.00 0.00 100 935.2
20260502034310 13 0.0 0.0 0.00 0.00 0.00 100 935.1
20260502033810 13 0.0 0.0 0.00 0.00 0.00 100 935.1
20260502033310 13 0.0 0.0 0.00 0.00 0.00 100 935.0
20260502032810 13 0.0 0.0 0.00 0.00 0.00 100 935.0
20260502032310 13 0.0 0.0 0.00 0.00 0.00 100 935.1
20260502031810 13 0.0 0.0 0.00 0.00 0.00 100 935.1
20260502031310 13 0.0 0.0 0.00 0.00 0.00 100 935.1
20260502030810 13 0.0 0.0 0.00 0.00 0.00 100 935.1
20260502030310 13 0.0 0.0 0.00 0.00 0.00 100 935.1
20260502025810 13 0.0 0.0 0.00 0.00 0.00 100 935.1
20260502025310 13 0.0 0.0 0.00 0.00 0.00 100 935.2
20260502024810 13 0.0 0.0 0.00 0.00 0.00 100 935.2
20260502024310 13 0.0 0.0 0.00 0.00 0.00 100 935.3
20260502023810 13 0.0 0.0 0.00 0.00 0.00 100 935.3
20260502023310 14 0.0 0.0 0.00 0.00 0.00 100 935.3
20260502022810 14 0.0 0.0 0.00 0.00 0.00 100 935.3
20260502022310 13 0.0 0.0 0.00 0.00 0.00 100 935.3
20260502021810 13 0.0 0.0 0.00 0.00 0.00 100 935.3
20260502021310 14 0.0 0.0 0.00 0.00 0.00 100 935.3
20260502020810 14 0.0 0.0 0.00 0.00 0.00 100 935.2
20260502020310 14 0.0 0.0 0.00 0.00 0.00 100 935.2
20260502015810 14 0.0 0.0 0.00 0.00 0.00 100 935.2
20260502015310 14 0.0 0.0 0.00 0.00 0.00 100 935.3
20260502014810 14 0.0 0.0 0.00 0.00 0.00 100 935.3
20260502014310 14 0.0 0.0 0.00 0.00 0.00 100 935.3
20260502013810 14 0.0 0.0 0.00 0.00 0.00 100 935.3
20260502013310 15 0.0 0.0 0.00 0.00 0.00 100 935.2
20260502012810 14 0.0 0.0 0.00 0.00 0.00 100 935.2
20260502012310 15 0.0 0.0 0.00 0.00 0.00 100 935.2
20260502011810 15 0.0 0.0 0.00 0.00 0.00 100 935.3
20260502010942 15 0.0 0.0 0.00 0.00 0.00 100 935.3
20260502010442 15 0.0 0.0 0.00 0.00 0.00 100 935.3
20260502005942 15 0.0 0.0 0.00 0.00 0.00 100 935.3
20260502005442 15 0.0 0.0 0.00 0.00 0.00 100 935.4
20260502004942 15 0.0 0.0 0.00 0.00 0.00 100 935.4
20260502004442 15 0.0 0.0 0.00 0.00 0.00 100 935.4
20260502003942 15 0.0 0.0 0.00 0.00 0.00 100 935.4
20260502003442 15 0.0 0.0 0.00 0.00 0.00 100 935.4
20260502002942 15 0.0 0.0 0.00 0.00 0.00 100 935.5
20260502002442 15 0.0 0.0 0.00 0.00 0.00 100 935.6
20260502001942 15 0.0 0.0 0.00 0.00 0.00 100 935.6
20260502001442 16 0.0 0.0 0.00 0.00 0.00 100 935.6
20260502000942 15 0.0 0.0 0.00 0.00 0.00 100 935.7
20260502000442 15 0.0 0.0 0.00 0.00 0.00 100 935.7
20260501235942 16 0.0 0.0 0.00 0.00 0.00 100 935.7
20260501235442 16 0.0 0.0 0.00 0.00 0.00 100 935.8
20260501234942 16 0.0 0.0 0.00 0.00 0.00 100 935.7
20260501234442 16 0.0 0.0 0.00 0.00 0.00 100 935.7
20260501233942 16 0.0 0.0 0.00 0.00 0.00 100 935.7
20260501233442 16 0.0 0.0 0.00 0.00 0.00 100 935.7
20260501232942 16 0.0 0.0 0.00 0.00 0.00 100 935.8
20260501232442 16 0.0 0.0 0.00 0.00 0.00 100 935.9